Weather History for Louisville Bowman, KY

Change the Weather History Date:

Monday, January 15, 2001

  Actual Average Record
Temperature  
Mean Temperature 42 °F 34 °F  
Max Temperature 48 °F 42 °F 68 °F (1950)
Min Temperature 35 °F 26 °F -5 °F (1972)
Degree Days  
Heating Degree Days 24 31  
Month to date heating degree days 459  
Since 1 July heating degree days 2123  
Cooling Degree Days 0 0  
Month to date cooling degree days 0  
Year to date cooling degree days 0  
Moisture  
Dew Point 33 °F    
Average Humidity 69    
Maximum Humidity 80    
Minimum Humidity 53    
Precipitation  
Precipitation 0.00 in 0.12 in 1.36 in (1950)
Month to date precipitation 1.82  
Year to date precipitation 1.82  
Snow  
Snow 0.00 in - - ()
Month to date snowfall  
Since 1 July snowfall  
Snow Depth -    
Sea Level Pressure  
Sea Level Pressure 30.08 in    
Wind  
Wind Speed 9 mph (West)    
Max Wind Speed 14 mph    
Max Gust Speed 21 mph    
Visibility 10 miles    
Events      
T = Trace of Precipitation, MM = Missing Value Source: NWS Daily Summary

Daily Weather History Graph

Daily Weather History Graph

Search for Another Location

Airport:

Trip Planner

Search our weather history database for the weather conditions in past years. The results will help you decide how hot, cold, wet, or windy it might be!

Date:

Astronomy

Jan. 15, 2001 Rise Set
Actual Time 7:57 AM EST 5:46 PM EST
Civil Twilight 7:29 AM EST 6:15 PM EST
Nautical Twilight 6:56 AM EST 6:48 PM EST
Astronomical Twilight 6:24 AM EST 7:19 PM EST
Moon No Moon Rise 12:02 PM EST (1/15)
Length of Visible Light 10h 46m
Length of Day
9h 48m
Waning Gibbous, 59% of the Moon is Illuminated
Jan 15
Waning Gibbous
Jan 16
Last Quarter
Jan 24
New
Feb 1
First Quarter
Feb 8
Full

Hourly Weather History & Observations

Time (EST) Temp. Windchill Dew Point Humidity Pressure Visibility Wind Dir Wind Speed Gust Speed Precip Events Conditions
12:53 AM 48.0 °F - 42.1 °F 80% 30.01 in 10.0 mi SW 5.8 mph - N/A   Overcast
1:53 AM 46.9 °F - 41.0 °F 80% 30.01 in 10.0 mi WSW 5.8 mph - N/A   Overcast
2:53 AM 46.9 °F - 41.0 °F 80% 30.02 in 10.0 mi WSW 5.8 mph - N/A   Overcast
3:08 AM 46.4 °F 41.9 °F 39.2 °F 76% 30.02 in 10.0 mi WSW 9.2 mph - N/A   Overcast
3:31 AM 46.4 °F 42.4 °F 39.2 °F 76% 30.02 in 10.0 mi SW 8.1 mph - N/A   Overcast
3:53 AM 46.9 °F - 39.0 °F 74% 30.03 in 10.0 mi WSW 6.9 mph - N/A   Overcast
4:53 AM 46.0 °F 41.0 °F 39.0 °F 76% 30.04 in 10.0 mi West 10.4 mph - N/A   Overcast
5:42 AM 46.4 °F 40.7 °F 39.2 °F 76% 30.04 in 10.0 mi West 12.7 mph - N/A   Overcast
5:53 AM 45.0 °F 40.6 °F 39.0 °F 80% 30.04 in 10.0 mi West 8.1 mph - N/A   Overcast
6:36 AM 42.8 °F 36.2 °F 35.6 °F 76% 30.03 in 10.0 mi West 12.7 mph - N/A   Overcast
6:53 AM 42.1 °F 35.2 °F 35.1 °F 76% 30.05 in 10.0 mi West 12.7 mph - N/A   Overcast
7:35 AM 41.0 °F 35.8 °F 33.8 °F 76% 30.06 in 10.0 mi West 8.1 mph - N/A   Overcast
7:53 AM 41.0 °F 35.2 °F 32.0 °F 70% 30.07 in 10.0 mi WSW 9.2 mph - N/A   Overcast
8:53 AM 39.9 °F 35.1 °F 30.9 °F 70% 30.08 in 10.0 mi WSW 6.9 mph - N/A   Overcast
9:53 AM 39.9 °F 35.1 °F 28.9 °F 65% 30.09 in 10.0 mi West 6.9 mph - N/A   Overcast
10:53 AM 42.1 °F 35.7 °F 28.9 °F 60% 30.09 in 10.0 mi West 11.5 mph - N/A   Mostly Cloudy
11:53 AM 43.0 °F 37.2 °F 28.9 °F 58% 30.09 in 10.0 mi West 10.4 mph 18.4 mph N/A   Overcast
12:53 PM 44.1 °F 38.6 °F 30.0 °F 58% 30.08 in 10.0 mi WSW 10.4 mph - N/A   Overcast
1:53 PM 45.0 °F 39.3 °F 30.0 °F 56% 30.06 in 10.0 mi WSW 11.5 mph - N/A   Overcast
2:53 PM 45.0 °F 38.9 °F 30.9 °F 58% 30.06 in 10.0 mi West 12.7 mph - N/A   Overcast
3:53 PM 46.0 °F 39.9 °F 32.0 °F 58% 30.07 in 10.0 mi West 13.8 mph 20.7 mph N/A   Mostly Cloudy
4:53 PM 45.0 °F 38.5 °F 28.9 °F 53% 30.08 in 10.0 mi West 13.8 mph - N/A   Mostly Cloudy
5:53 PM 43.0 °F 37.2 °F 28.9 °F 58% 30.10 in 10.0 mi West 10.4 mph - N/A   Overcast
6:53 PM 39.9 °F 32.5 °F 28.9 °F 65% 30.13 in 10.0 mi WNW 12.7 mph 20.7 mph N/A   Mostly Cloudy
7:53 PM 37.9 °F 30.9 °F 26.1 °F 62% 30.16 in 10.0 mi NW 10.4 mph - N/A   Scattered Clouds
8:53 PM 36.0 °F 30.3 °F 27.0 °F 70% 30.17 in 10.0 mi NW 6.9 mph - N/A   Partly Cloudy
9:53 PM 35.1 °F 28.6 °F 27.0 °F 72% 30.17 in 10.0 mi West 8.1 mph - N/A   Partly Cloudy
10:32 PM 35.6 °F 29.9 °F 28.4 °F 75% 30.17 in 10.0 mi West 6.9 mph - N/A   Mostly Cloudy
10:53 PM 36.0 °F 27.1 °F 27.0 °F 70% 30.19 in 10.0 mi West 13.8 mph 18.4 mph N/A   Overcast
11:44 PM 35.6 °F 29.2 °F 26.6 °F 70% 30.18 in 10.0 mi West 8.1 mph - N/A   Overcast
11:53 PM 36.0 °F 29.6 °F 27.0 °F 70% 30.19 in 10.0 mi West 8.1 mph - N/A   Overcast